Tracking 28790 objects as of 19-Apr-2024
HD Live streaming from Space Station
objects crossing your sky now

STARLINK-4774

Track STARLINK-4774 now!
10-day predictions
STARLINK-4774 is classified as:


NORAD ID: 56138
Int'l Code: 2023-046AY
Perigee: 565.1 km
Apogee: 567.2 km
Inclination: 43.0 °
Period: 95.8 minutes
Semi major axis: 6937 km
RCS: Unknown
Launch date: March 29, 2023
Source: United States (US)
Launch site: AIR FORCE EASTERN TEST RANGE (AFETR)
Your satellite tracking list
Your tracking list is empty




NASA's NSSDC Master Catalog

Two Line Element Set (TLE):
1 56138U 23046AY  24109.85526710  .00003421  00000-0  26813-3 0  9991
2 56138  43.0044 294.2781 0001498 264.2901  95.7771 15.02546047 58440
Source of the keplerian elements: AFSPC